Location: �terpigny
(49.8910°N, 2.9249°E)
Time: 05:26:04
(UTC+00:00)

Cosmos 614 Rocket - Pass Details

Date: 05 June 2022
Orbit: 732 x 764 km, 74.1° (Epoch: 06 July)

Event Time Altitude Azimuth Distance (km) Brightness Sun altitude
Rises 21:23:18 0° 344° (NNW) 3,223 8.9 -10.8°
Reaches altitude 10° 21:27:53 10° 21° (NNE) 2,301 7.0 -11.2°
Maximum altitude 21:29:10 11° 35° (NE) 2,245 6.7 -11.3°
Drops below altitude 10° 21:30:27 10° 50° (NE) 2,302 6.6 -11.4°
Sets 21:35:02 0° 87° (E) 3,228 7.0 -11.8°
